FENGYUN 1C DEB, 30089

Orbit data source: Space-Track

FENGYUN 1C DEB, 30089 is space debris in SSO originally from a launch on Mon, 10 May 1999 UTC launched from the Taiyaun Space Center, China (TSC). Fengyun 1C debris stems from the Chinese weather satellite Fengyun-1C, which was intentionally destroyed by a Chinese anti-satellite missile in 2007. This event dramatically increased the amount of space debris, with thousands of trackable fragments posing hazards to satellites and human spaceflight. The Fengyun 1C debris cloud has become a focal point in discussions about space sustainability and the need for international regulations to prevent the creation of new debris.

Loading next visibility...
Identifier
30089, 1999-025QS
Orbit
SSO
Country
Flag of CNCN / PRC
Related business
Manufacturer
Unknown
Mission
Spacecraft
Bus & Motor
Unknown
Mass
Unknown
Launch date (UTC)
1999-05-10 (27 years ago)
Launch vehicle
Unknown
Launch site
Taiyaun Space Center, China (TSC)
Object type
Payload
Rocket body
Debris
Shape & HBR
Unknown shape, 0.1 m
Radar Cross Section
Medium (>0.1 m² and <1 m²)

Expand to show TLE details & history
Last TLE update: 1 day ago

TLE from 1 day ago
0 FENGYUN 1C DEB
1 30089U 99025QS  26236.73834834  .00000282  00000-0  12212-3 0  9997
2 30089  98.8916 152.9885 0073336 186.5576 194.0125 14.30599531 21242
Epoch: 2026-08-24T17:43Z
TLE epoch observation values (Epoch: 2026-08-24T17:43:13.296Z)
Latitude
20.1171°
Longitude
-89.10037°
Altitude
843.279 km
Speed
7.406 km/s
True Right ascension
09h 58m 52s
True Declination
20° 00' 27"
Sunlit
Object was in daylight at epoch
Visualization orbit readout
Latitude
Unknown
Longitude
Unknown
Altitude
Unknown
Speed
Unknown
Apparent Right ascension
Unknown
Apparent Declination
Unknown
Sunlit
N/A
Visualization observer readout
Local Sidereal Time
11:08:06
Azimuth
Unknown
Elevation
Unknown
Doppler factor
Unknown
Orbital elements
Apogee altitude
839.426 km
Perigee altitude
734.335 km
Semi-major axis
7,165.018 km
Eccentricity
0.00733
Inclination
98.8916°
RAAN
152.9885°
Arg. of periapsis
186.5576°
True anomaly
193.81081°
Mean anomaly
194.0125°
Eccentric anomaly
193.91148°
Mean motion
3.57863 °/min
Orbital period
100.6 mins
BSTAR
0.00012212
Loading maneuver chart data...
Computing Atmospheric mass density...

Documentation

Showing up to 5 results
|